Regional Weather Roundup
Issued by NWS Upton, NY

Home | Current Version | Previous Version | Text Only | Print | Product List | Glossary On
Versions: 1 2 3 4 5 6 7 8 9 10 11 12 13 14 15 16 17 18 19 20 21 22 23 24 25 26 27
000
ASUS41 KOKX 241005
RWROKX

REGIONAL WEATHER ROUNDUP
NATIONAL WEATHER SERVICE NEW YORK NY
600 AM EDT THU APR 24 2014

NOTE: "FAIR" INDICATES FEW OR NO CLOUDS BELOW 12,000 FEET WITH NO
SIGNIFICANT WEATHER AND/OR OBSTRUCTIONS TO VISIBILITY.

NYZ071-072-176-178-NJZ106-104-241100-
NEW YORK CITY METRO AREA


CITY           SKY/WX    TMP DP  RH WIND       PRES   REMARKS
CENTRAL PARK   CLEAR     43  19  38 NW12G24   29.88R
LAGUARDIA APRT PTCLDY    43  21  41 NW15      29.86R
KENNEDY INTL   CLEAR     43  19  38 NW20G25   29.86R
NEWARK/LIBERTY CLEAR     42  20  41 NW12G20   29.88R
TETERBORO      CLEAR     43  20  39 NW7       29.86R
$$

NYZ177-179-078>081-241100-
LONG ISLAND NEW YORK

CITY           SKY/WX    TMP DP  RH WIND       PRES   REMARKS
FARMINGDALE    CLEAR     41  25  53 NW9G16    29.83R
ISLIP          PTCLDY    42  27  55 NW14G21   29.80R
SHIRLEY        CLEAR     42  25  50 NW13G24   29.80R
WESTHAMPTON    CLEAR     43  22  43 NW15G23   29.79R
MONTAUK POINT    N/A     44  28  53 NW17G24   29.74R
$$

NYZ052-065-067-241100-
HUDSON VALLEY

CITY           SKY/WX    TMP DP  RH WIND       PRES   REMARKS
WHITE PLAINS   CLEAR     40  22  48 NW14G21   29.81R WCI  32
NEWBURGH       CLEAR     37  19  48 SW7       29.86R WCI  32
MONTGOMERY     CLEAR     39  16  39 NW10      29.86R WCI  32
POUGHKEEPSIE   CLEAR     40  17  39 N7        29.84R
ALBANY         CLEAR     35  16  45 NW10      29.86R WCI  27
$$

NJZ001-105-106-008-010-013-015-019>022-104-241100-
NEW JERSEY

CITY           SKY/WX    TMP DP  RH WIND       PRES   REMARKS
NEWARK/LIBERTY CLEAR     42  20  41 NW12G20   29.88R
TETERBORO      CLEAR     43  20  39 NW7       29.86R
CALDWELL       CLEAR     41  18  39 NW10      29.89R
MORRISTOWN     CLEAR     43  18  36 NW3       29.90R
SOMERVILLE     CLEAR     41  18  39 NW8       29.90R
LINDEN         FAIR      43  21  42 NW10G16   29.91R
SUSSEX         CLEAR     40  18  41 VRB6      29.89R
ANDOVER          N/A     37  18  46 N6        29.91R WCI  32
TRENTON        CLEAR     41  21  44 NW8       29.93R
MILLVILLE      CLEAR     41  28  60 W9        29.98R
ATLANTIC CITY  CLEAR     41  26  55 W13       29.95R
WRIGHTSTOWN    CLEAR     40  23  49 W13       29.91R WCI  33
TOMS RIVER     CLEAR     39  27  60 W7        29.92R WCI  34
BELMAR         CLEAR     41  21  45 NW10      29.89R
$$

PAZ047>061-062-071-241100-
EASTERN PENNSYLVANIA

CITY           SKY/WX    TMP DP  RH WIND       PRES   REMARKS
PHILADELPHIA   CLEAR     45  18  34 W12       29.98R
ALLENTOWN      CLEAR     40  17  39 NW10      29.96R WCI  33
SCRANTON       CLEAR     34  18  52 W8        29.96R WCI  27
$$

CTZ002-004>006-009-010-012-RIZ004-006-007-MAZ004-011-015-241100-
SOUTHERN NEW ENGLAND
 IN CT

CITY           SKY/WX    TMP DP  RH WIND       PRES   REMARKS
BRADLEY INTL   CLEAR     40  17  39 NW12G21   29.75R WCI  33
HARTFORD       CLEAR     41  17  38 NW10G26   29.77R
DANBURY        CLEAR     40  12  32 NW15G23   29.83R WCI  32
WTRBRY/OXFORD  CLEAR     37  16  41 NW14G26   29.80R WCI  29
BRIDGEPORT     CLEAR     43  15  32 NW16G29   29.79S
MERIDEN        CLEAR     42  17  36 NW12G20   29.78R
NEW HAVEN      CLEAR     43  19  38 NW10G24   29.78R
CHESTER        FAIR      39  21  48 NW17G25   29.74S WCI  30
GROTON         CLEAR     42  24  49 NW13G23   29.72R
WILLIMANTIC    CLEAR     41  22  46 NW10G20   29.73R

 IN RI

CITY           SKY/WX    TMP DP  RH WIND       PRES   REMARKS
PROVIDENCE     PTCLDY    42  18  37 NW17G25   29.68R
BLOCK ISLAND   CLEAR     43  25  49 NW13G24   29.70R
WESTERLY       CLEAR     42  23  46 NW10G20   29.71R

 IN MA

CITY           SKY/WX    TMP DP  RH WIND       PRES   REMARKS
BOSTON         PTCLDY    42  21  43 NW17G31   29.64R
WORCESTER      CLEAR     37  16  42 NW23G33   29.66R WCI  26
WESTFIELD      CLEAR     38  20  48 NW7       29.75R WCI  33
PROVINCETOWN   CLEAR     43  30  61 MISG      29.59R
NANTUCKET      CLEAR     44  28  53 NW23G38   29.59R
$$

ANZ330-335-338-340-345-350-353-355-241100-
COASTAL MARINE OBSERVATIONS


STATION/POSITION TIME  SKY/WX   TEMP    WIND        PRES    VSBY  WAVE
                                AIR SEA DIR/SP/G                  HT/PER
                 (UTC)          (F)     (DEG/KT/KT) (MB)    (MI)  (FT/S)
NY HARB ENTRANCE 1000            44 44  VRB 21/ 25  1010.6
4S FIRE IS       0900               45                N/A           3/ 4
23SW MTP         1000            44 43  310/ 23/ 27 1006.6          5/ 4
HUDSON CANYON    0900            45 45  310/ 25/ 31 1008.3          9/ 7
EXECUTION ROCKS  1000            43 45  320/ 12/ 16   N/A
WESTERN LI SOUND 1000            44     300/ 14/ 19   N/A           1
CENTRAL LI SOUND 0900            44 43  320/ 17/ 23   N/A           2/ 4
EASTERN LI SOUND NOT AVBL
ROBBINS REEF     1000            43     310/ 18/ 25   N/A
$$


>>>>>>>>>>>>>>>>>>>>>>>>>>>> KEY <<<<<<<<<<<<<<<<<<<<<<<<<<<
>                                                          <
>     SKY/WX - SKY CONDITION/PRESENT WEATHER               <
>     TMP    - TEMPERATURE IN FAHRENHEIT                   <
>     DP     - DEWPOINT IN FAHRENHEIT                      <
>     RH     - RELATIVE HUMIDITY IN PERCENT                <
>     WIND   - DIRECTION AND SPEED IN MPH                  <
>     PRES   - MEAN SEA LEVEL PRESSURE IN INCHES OF HG     <
>     WCI    - WIND CHILL INDEX                            <
>     VSB    - VISIBILITY IN MILES                         <
>     HX     - HEAT INDEX                                  <
>     TC     - TEMPERATURE IN CELSIUS                      <
>     VRB    - VARIABLE WIND DIRECTION                     <
>                                                          <
>>>>>>>>>>>>>>>>>>>>>>>>>>>> KEY <<<<<<<<<<<<<<<<<<<<<<<<<<<





USA.gov is the U.S. government's official web portal to all federal, state and local government web resources and services.